Regional Weather Roundup
Issued by NWS

Home | Current Version | Previous Version | Text Only | Print | Product List | Glossary On
Versions: 1 2 3 4 5 6 7 8 9 10 11 12 13 14 15 16 17 18 19 20 21 22 23 24 25 26 27 28 29 30 31 32 33 34 35 36 37 38 39 40 41 42 43 44 45 46 47 48 49 50
198
ASUS43 KMKX 161320
RWRWI

WISCONSIN REGIONAL WEATHER ROUNDUP
NATIONAL WEATHER SERVICE MILWAUKEE/SULLIVAN WI
700 AM CST SAT DEC 16 2017

NOTE: "FAIR" INDICATES FEW OR NO CLOUDS BELOW 12,000 FEET WITH NO
SIGNIFICANT WEATHER AND/OR OBSTRUCTIONS TO VISIBILITY.

WIZ001-002-006>008-014>016-023>028-161400-
NORTHWEST WISCONSIN

CITY           SKY/WX    TMP DP  RH WIND       PRES   REMARKS
SUPERIOR ARPT  CLOUDY    16   9  72 E3        29.88R
ASHLAND        CLOUDY    11   5  77 SE3       29.90R
HAYWARD        CLOUDY    15   8  73 E7        29.82F WCI   5
SIREN          CLOUDY    19  15  82 E8        29.80S WCI   9
CUMBERLAND     CLOUDY    19  16  86 E8        29.78R WCI   9
RICE LAKE      CLOUDY    20  17  86 E5        29.81R WCI  14
CHETEK         CLOUDY    20  16  84 E6        29.80R WCI  12
LADYSMITH      CLOUDY    18  12  79 E10       29.83R WCI   6
EAU CLAIRE     CLOUDY    22  18  85 NE12      29.79R WCI  10
MENOMONIE      CLOUDY    24  21  89 E7        29.79R WCI  16
NEW RICHMOND   CLOUDY    23  19  87 E8        29.78R WCI  14
OSCEOLA        CLOUDY    23  20  87 E7        29.80R WCI  15
$$

WIZ003>005-009-010-017-018-161400-
NORTH CENTRAL WISCONSIN

CITY           SKY/WX    TMP DP  RH WIND       PRES   REMARKS
MANITOWISH WTR CLOUDY     6   4  92 CALM      29.83R
ARBOR VITAE    CLOUDY     6   2  87 CALM      29.83R
WOODRUFF       CLOUDY     6   2  87 CALM      29.83R
RHINELANDER    CLOUDY     2   1  96 E3        29.83R
EAGLE RIVER    CLOUDY     2  -2  83 CALM      29.85R
LAND O LAKES   CLOUDY    12   7  80 E5        29.86R WCI   4
PHILLIPS       CLOUDY    12   8  85 E6        29.82R WCI   2
TOMAHAWK       CLOUDY    11   8  87 E3        29.84R
MEDFORD        CLOUDY    15  10  83 E9        29.80R WCI   3
MERRILL        CLOUDY    14   9  81 E7        29.85R WCI   4
$$

WIZ029-030-035-036-043>047-161400-
CENTRAL WISCONSIN

CITY           SKY/WX    TMP DP  RH WIND       PRES   REMARKS
WAUSAU         CLOUDY    14   9  80 E8        29.83R WCI   3
MOSINEE        CLOUDY    14  10  85 E10       29.84R WCI   1
MARSHFIELD     CLOUDY    16  13  88 E13       29.81R WCI   2
STEVENS POINT  CLOUDY    14  11  89 E9        29.85R WCI   2
WAUPACA        CLOUDY    19  14  82 NE7       29.89R WCI  10
WAUTOMA        CLOUDY    18  14  84 NE8       29.87R WCI   8
WISC RAPIDS    CLOUDY    17  12  80 E13       29.85R WCI   4
CAMP DOUGLAS   CLOUDY    23  21  93 E7        29.81R WCI  15
$$

WIZ011>013-019>022-031-037>040-048>050-161400-
NORTHEAST WISCONSIN

CITY           SKY/WX    TMP DP  RH WIND       PRES   REMARKS
ANTIGO         CLOUDY    12   6  77 E8        29.85R WCI   1
SHAWANO        CLOUDY    17  10  77 NE5       29.90R WCI   9
OCONTO         CLOUDY    15   6  66 NE6       29.92R WCI   7
STURGEON BAY   CLOUDY    19  10  68 NE9       29.92R WCI   8
GREEN BAY      CLOUDY    19  12  74 NE9       29.90R WCI   8
MANITOWOC      MIX PCPN  19  17  92 N5        29.90R WCI  12
APPLETON       CLOUDY    18  12  79 E13       29.86R WCI   4
CLINTONVILLE   CLOUDY    16  10  79 NE6       29.89S WCI   7
OSHKOSH        CLOUDY    20  16  84 E9        29.86R WCI   9
$$

WIZ032>034-041-042-053>061-161400-
SOUTHWEST WISCONSIN

CITY           SKY/WX    TMP DP  RH WIND       PRES   REMARKS
LA CROSSE      CLOUDY    28  26  92 N3        29.77R
SPARTA         CLOUDY    27  25  94 E7        29.80R WCI  19
VIROQUA        CLOUDY    28  26  92 CALM      29.74R
BOSCOBEL       CLOUDY    27  24  89 CALM      29.78R
PRAIRIE DU CHI CLOUDY    32  22  66 CALM      29.76R
PLATTEVILLE    CLOUDY    29  24  81 SE7       29.77R WCI  22
$$

WIZ056-057-062-063-064-067-068-161400-
SOUTH CENTRAL WISCONSIN

CITY           SKY/WX    TMP DP  RH WIND       PRES   REMARKS
REEDSBURG      CLOUDY    25  25  99 E8        29.78F WCI  16
BARABOO/DELLS  CLOUDY    24  23  96 E10G17    29.78F WCI  13
LONE ROCK      PTCLDY    29  24  82 SE5       29.79R WCI  24
MINERAL POINT  CLOUDY    32  27  80 S3        29.77R
MADISON        CLOUDY    29  22  75 E5        29.81R WCI  24
MIDDLETON      CLOUDY    32  24  71 CALM      29.80R
WATERTOWN      CLOUDY    30  28  94 E7        29.83R WCI  23
MONROE         MOCLDY    30  23  74 S9        29.78R WCI  22
JANESVILLE     PTCLDY    34  23  64 S6        29.79S WCI  29
$$

WIZ051-052-058>065-066-070>072-161400-
SOUTHEAST WISCONSIN

CITY           SKY/WX    TMP DP  RH WIND       PRES   REMARKS
MILWAUKEE      CLOUDY    35  27  72 N6        29.85R WCI  30
WAUKESHA       CLOUDY    28  27  93 CALM      29.85R FOG
MILWAUKEE/TIMM CLOUDY    30  28  93 CALM      29.86R FOG
RACINE         CLOUDY    35  25  66 W3        29.85R
BURLINGTON     CLOUDY    31  25  78 CALM      29.82R
KENOSHA        CLOUDY    35  24  64 SW7       29.83R WCI  29
FOND DU LAC    CLOUDY    22  17  81 NE7       29.87R WCI  13
SHEBOYGAN      CLOUDY    22  21  96 N7        29.87R WCI  13
WEST BEND      CLOUDY    25  25 100 NE6       29.85R WCI  18
JUNEAU         CLOUDY    27  24  91 NE7       29.84R WCI  19
$$

LSZ147-162-161400-
LAKE SUPERIOR

STATION/POSITION TIME  TEMP    WIND        PRES    WAVE
                       AIR SEA DIR/SP/G            HT/PER
                 (UTC) (F)     (DEG/KT/KT) (MB)    (FT/S)
DEVILS ISLAND    1300   23     110/ 18/ 21 1013.3R
SAXON HARBOR     1240   14                 1012.2R
$$

LMZ867-665-643>646-161400-
LAKE MICHIGAN

STATION/POSITION TIME  TEMP    WIND        PRES    WAVE
                       AIR SEA DIR/SP/G            HT/PER
                 (UTC) (F)     (DEG/KT/KT) (MB)    (FT/S)
NORTHPORT PIER   1306   21      20/  5/ 11 1013.9
KEWAUNEE LAKESHO 1254   20     340/  4/  5 1012.1R
SHEBOYGAN LAKESH 1300   29      50/ 15/ 17 1012.4R
PORT WASHINGTON  1240   34      50/ 15/ 16 1012.2R
MILWAUKEE LAKESH 1300   34     350/  3/  3   N/A
KENOSHA   LAKESH 1300   36     230/  8/ 11 1010.5
$$

TC  - TEMPERATURE IN CELSIUS
VSB - VISIBILITY IN STATUTE MILES
WCI - WIND CHILL INDEX
HX  - HEAT INDEX





USA.gov is the U.S. government's official web portal to all federal, state and local government web resources and services.